CW3577 Weather Reports


Display with metric or nautical units.
time (UTC)temp
F
wind
direction
speed
MPH
gust
MPH
rain 1hr
in
rain 24hr
in
rain mn
in
humidity
%
barometer
mb
20260901120058 66 223 0.0 2.0 0.00 0.02 0.02 92 1018.4
20260901114602 66 223 0.0 1.0 0.01 0.02 0.02 92 1018.3
20260901113052 66 223 0.0 2.0 0.01 0.02 0.02 91 1018.4
20260901111554 66 222 0.0 2.0 0.01 0.02 0.02 91 1018.3
20260901110013 66 222 0.0 2.0 0.02 0.02 0.02 90 1018.1
20260901104544 66 222 0.0 2.0 0.01 0.01 0.01 89 1017.9
20260901103015 66 219 0.0 1.0 0.01 0.01 0.01 88 1017.7
20260901101547 66 196 2.0 5.0 0.01 0.01 0.01 87 1017.6
20260901100019 67 198 1.0 7.0 0.00 0.00 0.00 85 1017.5
20260901094540 67 196 1.0 3.0 0.00 0.00 0.00 82 1017.5
20260901093007 67 190 1.0 5.0 0.00 0.00 0.00 81 1017.4
20260901091552 67 192 1.0 3.0 0.00 0.00 0.00 80 1017.4
20260901084537 67 183 0.0 1.0 0.00 0.00 0.00 79 1017.4
20260901083005 67 183 1.0 3.0 0.00 0.00 0.00 79 1017.3
20260901081537 67 183 2.0 4.0 0.00 0.00 0.00 79 1017.4
20260901080106 67 184 1.0 4.0 0.00 0.00 0.00 79 1017.4
20260901074533 67 184 0.0 2.0 0.00 0.00 0.00 80 1017.5
20260901073053 67 184 0.0 2.0 0.00 0.00 0.00 79 1017.8
20260901071525 67 181 0.0 2.0 0.00 0.00 0.00 80 1017.7
20260901070009 67 182 0.0 1.0 0.00 0.00 0.00 80 1017.9
20260901064536 67 182 0.0 2.0 0.00 0.00 0.00 79 1018.1
20260901063102 67 181 0.0 2.0 0.00 0.00 0.00 80 1018.0
20260901061527 67 181 1.0 3.0 0.00 0.00 0.00 80 1018.0
20260901060049 67 188 0.0 2.0 0.00 0.00 0.00 82 1018.2
20260901054554 67 188 0.0 1.0 0.00 0.00 0.00 82 1018.2
20260901053026 67 188 0.0 3.0 0.00 0.00 0.00 83 1018.1
20260901051540 67 188 0.0 1.0 0.00 0.00 0.00 84 1018.3
20260901050105 67 188 0.0 2.0 0.00 0.00 0.00 84 1018.2
20260901044533 67 188 0.0 2.0 0.00 0.00 0.00 83 1018.2
20260901043124 67 188 0.0 2.0 0.00 0.00 0.00 83 1018.1
20260901041527 67 188 0.0 2.0 0.00 0.00 0.00 83 1018.3
20260901040125 67 188 0.0 1.0 0.00 0.00 0.00 82 1018.1
20260901034520 67 188 0.0 2.0 0.00 0.00 0.00 82 1018.2
20260901033110 67 188 0.0 1.0 0.00 0.00 0.00 82 1018.3
20260901031525 67 188 0.0 1.0 0.00 0.00 0.00 82 1018.3
20260901030051 67 188 0.0 2.0 0.00 0.00 0.00 81 1018.2
20260901024508 66 188 0.0 3.0 0.00 0.00 0.00 81 1018.1
20260901023105 66 219 0.0 2.0 0.00 0.00 0.00 82 1018.2
20260901021507 66 219 0.0 1.0 0.00 0.00 0.00 82 1018.0
20260901020050 66 219 0.0 1.0 0.00 0.00 0.00 81 1018.1
20260901014608 67 219 0.0 1.0 0.00 0.00 0.00 81 1018.1
20260901013047 67 219 0.0 2.0 0.00 0.00 0.00 80 1018.2
20260901011558 67 219 0.0 0.0 0.00 0.00 0.00 79 1018.4
20260901010034 68 219 0.0 0.0 0.00 0.00 0.00 78 1018.3
20260901004608 68 219 0.0 0.0 0.00 0.00 0.00 76 1018.4
20260901003022 69 219 0.0 1.0 0.00 0.00 0.00 75 1018.2
20260901001616 70 219 0.0 2.0 0.00 0.00 0.00 74 1018.1
20260901000008 70 219 0.0 2.0 0.00 0.00 0.00 73 1018.0
20260831234552 71 222 0.0 1.0 0.00 0.00 0.00 72 1018.1
20260831233001 71 222 0.0 1.0 0.00 0.00 0.00 70 1018.2
20260831231535 72 222 1.0 2.0 0.00 0.00 0.00 67 1018.2
20260831230050 74 219 0.0 2.0 0.00 0.00 0.00 64 1018.4
20260831224518 75 217 1.0 3.0 0.00 0.00 0.00 61 1018.5
20260831223032 75 223 0.0 6.0 0.00 0.00 0.00 58 1018.5
20260831221603 76 223 1.0 8.0 0.00 0.00 0.00 56 1018.5
20260831220014 77 194 2.0 7.0 0.00 0.00 0.00 56 1018.4
20260831214601 77 204 3.0 6.0 0.00 0.00 0.00 55 1018.3
20260831213021 77 220 3.0 7.0 0.00 0.00 0.00 54 1018.3
20260831211553 78 232 1.0 5.0 0.00 0.00 0.00 53 1018.5
20260831210001 78 269 3.0 10.0 0.00 0.00 0.00 52 1018.6
20260831204554 77 296 2.0 7.0 0.00 0.00 0.00 53 1018.6
20260831203105 78 221 3.0 8.0 0.00 0.00 0.00 51 1018.6
20260831201543 79 201 2.0 9.0 0.00 0.00 0.00 50 1018.6
20260831200001 79 225 3.0 10.0 0.00 0.00 0.00 48 1018.7
20260831194535 80 306 3.0 10.0 0.00 0.00 0.00 49 1018.9
20260831193059 80 279 2.0 8.0 0.00 0.00 0.00 48 1018.9
20260831191541 79 186 2.0 7.0 0.00 0.00 0.00 49 1018.9
20260831190100 78 265 2.0 8.0 0.00 0.00 0.00 47 1019.3
20260831184521 77 196 2.0 4.0 0.00 0.00 0.00 50 1019.2
20260831183059 77 198 3.0 8.0 0.00 0.00 0.00 50 1019.5
20260831181518 77 298 1.0 6.0 0.00 0.00 0.00 46 1019.7
20260831180053 76 236 2.0 5.0 0.00 0.00 0.00 47 1019.7
20260831174511 77 186 3.0 6.0 0.00 0.00 0.00 47 1019.7
20260831173127 77 175 2.0 7.0 0.00 0.00 0.00 45 1019.9
20260831171510 76 306 2.0 5.0 0.00 0.00 0.00 47 1020.1
20260831170050 76 215 1.0 5.0 0.00 0.00 0.00 47 1020.3
20260831164611 77 344 1.0 8.0 0.00 0.00 0.00 41 1020.4
20260831163039 76 326 4.0 8.0 0.00 0.00 0.00 41 1020.6
20260831161547 76 277 2.0 8.0 0.00 0.00 0.00 45 1020.7
20260831160008 76 289 2.0 5.0 0.00 0.00 0.00 46 1020.7
20260831154534 76 240 1.0 4.0 0.00 0.00 0.00 46 1020.9
20260831153051 75 302 3.0 6.0 0.00 0.00 0.00 48 1020.9
20260831151511 74 228 3.0 5.0 0.00 0.00 0.00 52 1021.0
20260831150106 73 126 2.0 6.0 0.00 0.00 0.00 54 1021.1
20260831144513 73 215 0.0 4.0 0.00 0.00 0.00 55 1021.3
20260831143104 72 196 3.0 6.0 0.00 0.00 0.00 52 1021.3
20260831141515 74 60 1.0 3.0 0.00 0.00 0.00 51 1021.4
20260831134520 72 136 1.0 4.0 0.00 0.00 0.00 55 1021.2
20260831133103 71 169 0.0 5.0 0.00 0.00 0.00 56 1021.2
20260831131520 71 168 0.0 3.0 0.00 0.00 0.00 55 1021.1
20260831130002 71 149 1.0 3.0 0.00 0.00 0.00 60 1021.1
20260831124541 70 17 1.0 5.0 0.00 0.00 0.00 62 1021.1
20260831123004 68 31 2.0 4.0 0.00 0.00 0.00 72 1021.1
20260831121527 64 316 1.0 3.0 0.00 0.00 0.00 85 1021.0